Location: *
(45.8589°N, 4.7139°E)
Time: 16:12:54
(UTC+00:00)

Cosmos 1954 Rocket - Pass Details

Date: 09 April 2020
Orbit: 752 x 781 km, 74.0° (Epoch: 04 June)

Event Time Altitude Azimuth Distance (km) Brightness Sun altitude
Rises 19:27:14 0° 185° (S) 3,226 7.0 -11.8°
Reaches altitude 10° 19:29:40 10° 180° (S) 2,300 6.2 -12.2°
Maximum altitude 19:34:42 51° 105° (ESE) 952 4.1 -13.0°
Drops below altitude 10° 19:39:44 10° 31° (NNE) 2,298 6.4 -13.8°
Sets 19:42:09 0° 26° (NNE) 3,224 7.3 -14.1°
